RJOBRJBB

Guest
Details From RJOB - OKAYAMA
To RJBB - KANSAI INTL
Flight Number -
Tags generated
Created
Modified
Stats Distance 71 nm / 131 km
Max Altitude 4,300 ft / 1,311 m
Waypoints 3
Social Downloads 0
Likes 0
Share VATSIM

Download

Looking for another format? Having issues loading an existing format? Contact us
Advertisement - Login to hide

Notes

Basic altitude profile: - Ascent Rate: 2500ft/min - Ascent Speed: 250kts - Cruise Altitude: 35000ft - Cruise Speed: 420kts - Descent Rate: 1500ft/min - Descent Speed: 250kts

Route

RJOB DAISY RJBB

ID Type Via Altitude Latitude Longitude Leg Dist Tot Dist Heading (true) Name
O RJOB APT - 0 ft / 0 m 34.75694˚ 133.85543˚ - 0 nm - OKAYAMA
DAISY FIX - 4,300 ft / 1,311 m 34.53596˚ 134.84189˚ 50 nm 50 nm 105° / 106° -
O RJBB APT - 0 ft / 0 m 34.43362˚ 135.23360˚ 20 nm 70 nm 107° / 108° KANSAI INTL

Altitude Profile

Advertisement - Login to hide

RJOB

Details ICAO RJOB (OKJ)
Name OKAYAMA
Region Japan
Timezone Asia/Tokyo (UTC+9.0)
Stats Elevation 806 ft / 246 m (AMSL)
Location 34.756937° 133.855435°
Runways 1
Magnetic Variation 7.794° W

METAR

RJOB 260800Z 22006KT 190V260 CAVOK 23/14 Q1007

Decode

TAF

TAF RJOB 260509Z 2606/2712 20005KT 9999 FEW030 BECMG 2608/2610 04004KT BECMG 2700/2703 20006KT BECMG 2709/2712 08005KT

Decode

Departure Runways

ID Width Length Bearing (true) Bearing (mag) Surface Threshold Offset Overrun Length
07 150 ft / 46 m 9,835 ft / 2,998 m 59.10° 66.89° Asphalt 0 ft / 0 m 200 ft / 61 m
25 150 ft / 46 m 9,835 ft / 2,998 m 239.12° 246.91° Asphalt 0 ft / 0 m 200 ft / 61 m

RJBB

Details ICAO RJBB (KIX)
Name KANSAI INTL
Region Japan
Timezone Asia/Tokyo (UTC+9.0)
Stats Elevation 26 ft / 8 m (AMSL)
Location 34.433619° 135.233598°
Runways 2
Magnetic Variation 7.611° W

METAR

RJBB 260800Z 25007KT CAVOK 23/18 Q1007 NOSIG

Decode

TAF

TAF RJBB 260510Z 2606/2712 23010KT 9999 FEW030 TEMPO 2618/2621 4000 BR BECMG 2618/2621 12004KT BECMG 2700/2703 24008KT

Decode

Destination Runways

ID Width Length Bearing (true) Bearing (mag) Surface Threshold Offset Overrun Length
06L 200 ft / 61 m 13,121 ft / 3,999 m 50.86° 58.47° Asphalt 0 ft / 0 m 200 ft / 61 m
06R 200 ft / 61 m 11,481 ft / 3,499 m 50.86° 58.47° Asphalt 0 ft / 0 m 200 ft / 61 m
24L 200 ft / 61 m 11,481 ft / 3,499 m 230.88° 238.49° Asphalt 0 ft / 0 m 200 ft / 61 m
24R 200 ft / 61 m 13,121 ft / 3,999 m 230.88° 238.49° Asphalt 0 ft / 0 m 200 ft / 61 m

Approach Navaids

Runway Type Ident Frequency Range Bearing (true) Bearing (mag) Slope Elevation
06R Localiser IKD 108.10 MHz 18 nm / 33 km 50.88° 58.49° - 26 ft / 8 m (AMSL)
06R Glidescope IKD 108.10 MHz 10 nm / 19 km 50.87° 58.48° 3.00° 54 ft / 16 m (AMSL)
06R DME IKD 108.10 MHz 18 nm / 33 km - - - 34 ft / 10 m (AMSL)
24L Localiser IKN 110.70 MHz 18 nm / 33 km 230.85° 238.46° - 26 ft / 8 m (AMSL)
24L Glidescope IKN 110.70 MHz 10 nm / 19 km 230.87° 238.48° 3.00° 36 ft / 11 m (AMSL)
24L DME IKN 110.70 MHz 18 nm / 33 km - - - 36 ft / 11 m (AMSL)

Popular Alternatives